Waarnemingen

Advertentie
Mijn weer
Agen, Frankrijk (7524): temperatuur & dauwpunt: 23.03.2017 01:00:00 - 29.03.2017 01:00:00 (CEST)Agen, Frankrijk (7524): temperatuur 5cm: 23.03.2017 01:00:00 - 29.03.2017 01:00:00 (CEST)Agen, Frankrijk (7524): temperatuur -20cm & temperatuur -100cm: 23.03.2017 01:00:00 - 29.03.2017 01:00:00 (CEST)Agen, Frankrijk (7524): windsnelheid & windstoten: 23.03.2017 01:00:00 - 29.03.2017 01:00:00 (CEST)Agen, Frankrijk (7524): windrichting: 23.03.2017 01:00:00 - 29.03.2017 01:00:00 (CEST)Agen, Frankrijk (7524): luchtdruk: 23.03.2017 01:00:00 - 29.03.2017 01:00:00 (CEST)Agen, Frankrijk (7524): zicht: 23.03.2017 01:00:00 - 29.03.2017 01:00:00 (CEST)Agen, Frankrijk (7524): Zonneschijnduur: 23.03.2017 01:00:00 - 29.03.2017 01:00:00 (CEST)Agen, Frankrijk (7524): neerslag: 23.03.2017 01:00:00 - 29.03.2017 01:00:00 (CEST)
Datum & Tijd tt [°C] td [°C] tt 5cm [°C] tt -20cm [°C] tt -100cm [°C] ff [km/u] ff [kn] fx [km/u] fx [kn] dd ppp [hPa] vv [km] sd [min] rr [mm]
29.03.2017 01:00:00 7,5 5,1 1,6 11,4 10,9 0 0 8 4 N 1027,8 40 0 0,0
29.03.2017 00:00:00 8,8 5,9 2,4 11,4 10,9 3 2 12 7 ZW 1027,7 40 0 0,0
28.03.2017 23:00:00 9,9 6,2 3,0 11,4 10,9 0 0 2 1 N 1027,3 55 0 0,0
28.03.2017 22:00:00 11,3 7,0 3,5 11,3 10,9 0 0 3 1 N 1026,9 50 0 0,0
28.03.2017 21:00:00 13,4 6,3 5,2 11,3 10,9 2 1 4 2 ZW 1026,2 59 2 0,0
28.03.2017 20:00:00 18,1 6,0 11,1 11,1 10,9 5 3 8 5 W 1025,6 60 32 0,0
28.03.2017 19:00:00 20,4 6,3 23,0 11,0 10,9 2 1 14 8 NNW 1025,3 60 60 0,0
28.03.2017 18:00:00 20,4 7,4 21,8 10,9 10,9 5 3 16 8 NNW 1025,0 60 29 0,0
28.03.2017 17:00:00 19,2 8,2 22,7 10,7 10,9 10 5 19 10 NW 1025,1 35 31 0,0
28.03.2017 16:00:00 20,9 6,4 32,7 10,6 10,9 11 6 23 13 ZW 1025,2 60 60 0,0
28.03.2017 15:00:00 19,4 7,2 25,0 10,6 10,9 10 5 22 12 ZW 1025,8 19 49 0,0
28.03.2017 14:00:00 18,6 8,0 26,6 10,6 10,9 7 4 20 11 W 1026,3 16 47 0,0
28.03.2017 13:00:00 17,8 9,2 33,2 10,6 10,9 5 3 13 7 NNO 1026,6 59 60 0,0
28.03.2017 12:00:00 15,7 9,8 19,6 10,6 10,9 7 4 11 6 ONO 1026,7 51 56 0,0
28.03.2017 11:00:00 12,5 9,1 12,6 10,6 10,9 6 3 11 6 O 1026,6 40 23 0,0
28.03.2017 10:00:00 10,6 8,4 7,8 10,7 10,9 8 4 11 6 OZO 1025,8 35 58 0,0
28.03.2017 09:00:00 7,9 7,1 1,8 10,7 10,9 6 4 10 5 OZO 1025,2 12 60 0,0
28.03.2017 08:00:00 5,7 5,0 0,7 10,8 10,9 5 3 10 5 OZO 1024,6 12 0 0,0
28.03.2017 07:00:00 5,7 4,8 0,1 10,8 10,9 5 3 8 4 OZO 1024,1 19 0 0,0
28.03.2017 06:00:00 6,5 5,6 0,5 10,9 10,9 2 1 8 4 OZO 1023,7 20 0 0,0
28.03.2017 05:00:00 6,7 5,3 0,7 10,9 10,9 6 3 9 5 O 1023,3 39 0 0,0
28.03.2017 04:00:00 6,8 5,6 1,3 10,9 10,9 5 3 6 4 OZO 1023,2 42 0 0,0
28.03.2017 03:00:00 8,9 6,9 2,4 10,9 10,9 3 2 8 4 ZZO 1023,3 54 0 0,0
28.03.2017 02:00:00 9,9 7,3 4,2 10,9 10,9 5 3 8 4 OZO 1022,7 60 0 0,0
28.03.2017 01:00:00 11,3 7,4 6,8 10,9 10,9 6 3 14 7 OZO 1022,4 60 0 0,0
28.03.2017 00:00:00 11,4 7,3 7,9 10,9 10,9 11 6 21 11 OZO 1021,9 60 0 0,0
27.03.2017 23:00:00 12,4 7,9 8,3 10,9 10,9 7 4 10 6 OZO 1021,6 60 0 0,0
27.03.2017 22:00:00 12,4 7,7 7,5 10,8 10,9 6 3 9 5 OZO 1020,9 58 0 0,0
27.03.2017 21:00:00 14,0 8,4 7,9 10,8 10,9 3 2 11 6 OZO 1019,9 59 0 0,0
27.03.2017 20:00:00 15,3 8,8 13,4 10,7 10,9 8 4 21 11 ZO 1019,1 60 0 0,0
27.03.2017 19:00:00 17,0 8,4 16,4 10,6 10,9 12 6 18 10 ZO 1018,8 60 0 0,0
27.03.2017 18:00:00 17,5 8,1 17,6 10,5 10,9 12 7 24 13 Z 1018,3 60 0 0,0
27.03.2017 17:00:00 18,8 8,4 22,4 10,4 10,9 10 5 19 10 ZO 1017,6 59 0 0,0
27.03.2017 16:00:00 19,0 8,0 24,8 10,4 10,9 9 5 14 8 OZO 1017,6 60 7 0,0
27.03.2017 15:00:00 19,1 8,1 26,6 10,3 10,9 7 4 17 9 NO 1017,6 60 39 0,0
27.03.2017 14:00:00 18,9 9,1 - - - 13 7 29 16 O 1017,4 60 - -
27.03.2017 13:00:00 17,9 10,0 27,5 10,3 10,9 16 9 29 16 OZO 1017,7 56 60 0,0
27.03.2017 12:00:00 15,0 9,4 17,7 10,3 10,9 13 7 27 15 O 1017,7 56 60 0,0
27.03.2017 11:00:00 12,9 7,8 12,0 10,3 10,9 17 9 27 15 OZO 1017,1 56 60 0,0
27.03.2017 10:00:00 10,7 7,4 7,9 10,4 10,9 15 8 21 11 OZO 1016,5 57 11 0,0
27.03.2017 09:00:00 7,9 6,2 4,4 10,4 10,9 9 5 14 8 OZO 1015,9 29 35 0,0
27.03.2017 08:00:00 6,3 5,3 0,5 10,5 10,9 9 5 10 5 O 1015,8 11 0 0,0
27.03.2017 07:00:00 6,0 5,0 -0,3 10,5 10,9 3 2 10 5 O 1015,4 29 0 0,0
27.03.2017 06:00:00 5,3 4,1 1,0 10,6 10,9 9 5 11 6 OZO 1015,1 29 0 0,0
27.03.2017 05:00:00 6,6 5,4 2,6 10,6 10,9 9 5 12 7 OZO 1015,2 18 0 0,0
27.03.2017 04:00:00 7,3 5,8 0,5 10,6 10,9 9 5 13 7 O 1015,7 20 0 0,0
27.03.2017 03:00:00 7,5 6,1 -0,2 10,6 10,9 7 4 13 7 ZO 1016,1 34 0 0,0
27.03.2017 02:00:00 8,5 6,3 0,6 10,7 10,9 11 6 17 9 OZO 1016,8 40 0 0,0
27.03.2017 01:00:00 8,8 5,7 1,2 10,7 10,9 4 2 10 5 O 1017,2 59 0 0,0
27.03.2017 00:00:00 9,8 4,8 2,0 10,7 10,9 6 3 13 7 O 1016,9 60 0 0,0
26.03.2017 23:00:00 10,3 4,0 2,0 10,7 10,9 11 6 13 7 OZO 1016,6 57 0 0,0
26.03.2017 22:00:00 10,3 4,6 1,6 10,6 10,9 8 4 10 5 OZO 1016,0 60 0 0,0
26.03.2017 21:00:00 13,1 5,0 3,7 10,5 10,9 2 1 8 4 OZO 1015,6 60 4 0,0
26.03.2017 20:00:00 16,6 4,6 10,2 10,5 10,9 7 4 19 10 OZO 1015,2 60 57 0,0
26.03.2017 19:00:00 18,7 4,8 19,6 10,3 10,9 12 6 25 13 OZO 1015,2 60 60 0,0
26.03.2017 18:00:00 19,5 4,0 24,6 10,3 10,9 15 8 27 15 OZO 1015,3 60 60 0,0
26.03.2017 17:00:00 19,3 1,7 28,5 10,1 10,9 18 10 27 15 OZO 1015,6 60 60 0,0
26.03.2017 16:00:00 19,1 4,1 30,3 10,1 10,9 19 10 29 16 OZO 1016,2 60 60 0,0
26.03.2017 15:00:00 18,2 6,7 30,9 10,0 10,9 16 9 25 13 OZO 1017,0 60 60 0,0
26.03.2017 14:00:00 16,1 6,5 27,8 10,1 10,9 13 7 25 13 O 1017,7 60 60 0,0
26.03.2017 13:00:00 14,4 7,9 22,6 10,1 10,9 14 7 19 10 O 1017,8 60 60 0,0
26.03.2017 12:00:00 12,2 7,3 10,1 10,1 10,9 11 6 22 12 O 1018,1 60 14 0,0
26.03.2017 11:00:00 9,3 5,7 8,8 10,1 10,9 19 10 28 15 OZO 1018,2 49 22 0,0
26.03.2017 10:00:00 8,6 5,5 5,7 10,2 10,9 16 9 24 13 OZO 1017,4 49 60 0,0
26.03.2017 09:00:00 6,5 4,5 1,9 10,2 10,9 13 7 18 10 O 1017,2 42 58 0,0
26.03.2017 08:00:00 4,4 3,4 -0,2 10,3 10,9 11 6 19 10 OZO 1016,6 20 0 0,0
26.03.2017 07:00:00 3,9 2,7 -0,2 10,3 10,9 11 6 15 8 OZO 1016,2 30 0 0,0
26.03.2017 06:00:00 5,3 3,8 1,0 10,4 10,9 12 7 16 9 OZO 1016,1 32 0 0,0
26.03.2017 05:00:00 5,5 4,0 1,9 10,4 10,9 10 5 16 8 OZO 1016,0 35 0 0,0
26.03.2017 04:00:00 6,2 4,4 1,7 10,5 10,9 12 6 20 11 OZO 1016,1 41 0 0,0
26.03.2017 03:00:00 7,2 4,8 1,2 10,5 10,9 13 7 20 11 ZO 1016,0 42 0 0,0
26.03.2017 02:00:00 5,5 4,3 0,1 10,5 10,9 10 5 15 8 OZO 1015,7 26 0 0,0
26.03.2017 01:00:00 5,4 4,5 -0,2 10,6 10,9 9 5 11 6 ZO 1015,8 30 0 0,0
26.03.2017 00:00:00 5,4 3,7 -0,1 10,6 10,9 4 2 6 3 ZZO 1015,8 20 0 0,0
25.03.2017 23:00:00 6,9 4,7 1,2 10,5 10,9 3 2 7 4 ZZW 1015,2 60 0 0,0
25.03.2017 22:00:00 8,2 5,0 2,3 10,5 10,9 3 2 9 5 ZW 1014,0 60 0 0,0
25.03.2017 21:00:00 10,3 5,9 4,4 10,5 10,9 2 1 10 6 WZW 1013,4 60 7 0,0
25.03.2017 20:00:00 12,6 5,3 11,9 10,4 10,9 7 4 9 5 NW 1012,3 60 60 0,0
25.03.2017 19:00:00 14,3 4,8 15,2 10,4 10,9 6 3 26 14 ZZW 1011,3 59 50 0,0
25.03.2017 18:00:00 13,9 6,0 17,8 10,4 10,9 17 9 33 18 ZZW 1011,2 60 60 0,0
25.03.2017 17:00:00 13,0 6,6 9,7 10,4 10,9 21 11 38 20 ZZO 1010,7 60 20 0,0
25.03.2017 16:00:00 10,7 7,2 9,8 10,3 10,9 24 13 41 22 OZO 1010,4 59 0 0,0
25.03.2017 15:00:00 10,5 7,7 10,6 10,3 10,9 25 13 47 25 OZO 1010,1 18 0 1,6
25.03.2017 14:00:00 14,7 8,2 14,2 10,3 10,9 18 10 38 21 O 1008,6 55 0 0,0
25.03.2017 13:00:00 14,1 7,6 14,4 10,3 10,9 24 13 45 24 O 1009,0 60 13 0,0
25.03.2017 12:00:00 12,4 9,0 11,2 10,3 10,9 15 8 23 12 O 1009,6 57 0 0,0
25.03.2017 11:00:00 9,3 7,6 9,2 10,3 10,9 4 2 14 8 NO 1010,7 19 0 0,6
25.03.2017 10:00:00 9,6 7,2 8,2 10,3 10,9 5 3 13 7 ZZO 1010,3 39 0 0,2
25.03.2017 09:00:00 8,2 6,7 5,3 10,4 10,9 3 2 16 9 Z 1010,5 44 0 0,0
25.03.2017 08:00:00 6,8 5,9 3,8 10,4 10,9 4 2 9 5 WZW 1010,5 16 0 0,0
25.03.2017 07:00:00 7,1 5,9 6,3 10,4 10,9 6 3 9 5 NNW 1011,1 14 0 0,0
25.03.2017 06:00:00 7,4 6,0 7,1 10,4 10,9 5 3 19 10 NO 1012,4 20 0 0,0
25.03.2017 05:00:00 7,6 6,4 7,5 10,4 10,9 3 2 7 4 NNW 1013,4 33 0 0,0
25.03.2017 04:00:00 7,6 6,2 7,4 10,4 10,9 5 3 8 5 NNO 1014,5 53 0 0,0
25.03.2017 03:00:00 7,6 6,4 7,3 10,4 11,0 4 2 5 3 NNO 1015,9 42 0 0,0
25.03.2017 02:00:00 7,5 6,1 7,1 10,4 10,9 0 0 6 3 N 1016,4 52 0 0,0
25.03.2017 01:00:00 7,6 6,4 7,1 10,4 10,9 3 2 9 5 ZZW 1016,8 8 0 0,2
25.03.2017 00:00:00 7,6 6,2 7,1 10,4 10,9 4 2 8 4 ZW 1017,0 36 0 0,2
24.03.2017 23:00:00 7,7 6,2 6,9 10,4 10,9 5 3 9 5 W 1017,4 20 0 0,8
24.03.2017 22:00:00 8,0 5,6 6,8 10,4 11,0 5 3 9 5 ZW 1017,9 42 0 0,2
24.03.2017 21:00:00 8,1 5,2 7,0 10,4 11,0 6 4 21 12 OZO 1018,3 60 0 0,0
24.03.2017 20:00:00 9,0 5,7 7,7 10,4 11,0 16 8 34 18 O 1018,0 20 0 0,2
24.03.2017 19:00:00 10,2 5,8 9,1 10,3 10,9 22 12 30 16 OZO 1017,1 48 0 0,0
24.03.2017 18:00:00 12,6 6,6 13,4 10,3 10,9 9 5 16 8 ONO 1016,7 60 0 0,0
24.03.2017 17:00:00 12,8 6,4 14,9 10,3 11,0 11 6 19 10 NO 1016,9 60 0 0,0
24.03.2017 16:00:00 12,9 5,8 17,0 10,2 10,9 8 4 24 13 O 1016,9 60 0 0,0
24.03.2017 15:00:00 12,8 5,9 18,3 10,2 10,9 4 2 13 7 O 1016,9 60 0 0,0
24.03.2017 14:00:00 11,8 5,9 19,2 10,2 11,0 4 2 9 5 NNW 1017,0 60 1 0,0
24.03.2017 13:00:00 11,0 5,5 17,9 10,2 10,9 4 2 11 6 ONO 1017,3 54 28 0,0
24.03.2017 12:00:00 9,2 4,6 14,0 10,3 11,0 6 4 16 9 O 1017,2 56 41 0,0
24.03.2017 11:00:00 8,2 4,0 9,4 10,3 10,9 7 4 13 7 OZO 1017,1 60 56 0,0
24.03.2017 10:00:00 5,4 3,6 0,5 10,4 11,0 4 2 8 5 NNW 1016,3 46 52 0,0
24.03.2017 09:00:00 2,0 1,3 -1,7 10,5 10,9 0 0 6 3 N 1016,2 20 6 0,0
24.03.2017 08:00:00 1,0 0,1 -1,8 10,5 10,9 2 1 6 3 NNW 1015,7 43 0 0,0
24.03.2017 07:00:00 0,7 0,0 -3,9 10,6 11,0 0 0 4 2 N 1015,2 54 0 0,0
24.03.2017 06:00:00 0,9 0,0 -4,1 10,7 10,9 0 0 4 2 N 1015,0 48 0 0,0
24.03.2017 05:00:00 0,9 -0,1 -4,0 10,7 11,0 3 1 5 3 ZO 1014,9 59 0 0,0
24.03.2017 04:00:00 2,6 1,4 -2,8 10,8 11,0 0 0 12 6 N 1014,8 20 0 0,0
24.03.2017 03:00:00 3,9 2,3 -1,8 10,8 10,9 0 0 5 3 N 1014,9 60 0 0,0
24.03.2017 02:00:00 4,5 3,0 -1,2 10,9 10,9 2 1 10 5 ONO 1014,9 56 0 0,0
24.03.2017 01:00:00 4,7 2,9 -0,1 10,9 10,9 7 4 11 6 O 1014,5 53 0 0,0
24.03.2017 00:00:00 5,6 3,8 2,4 10,9 11,0 8 5 14 8 O 1014,5 59 0 0,0
23.03.2017 23:00:00 7,1 4,2 2,8 10,9 11,0 12 6 19 10 OZO 1014,2 60 0 0,0
23.03.2017 22:00:00 6,8 3,4 1,6 10,9 11,0 9 5 14 8 OZO 1013,2 60 0 0,0
23.03.2017 21:00:00 8,1 3,2 1,8 10,8 10,9 7 4 13 7 O 1012,0 60 1 0,0
23.03.2017 20:00:00 9,8 2,4 6,9 10,8 11,0 11 6 16 8 OZO 1011,2 60 44 0,0
23.03.2017 19:00:00 12,2 0,3 11,0 10,7 10,9 5 3 12 6 OZO 1010,4 60 35 0,0
23.03.2017 18:00:00 12,1 0,8 16,5 10,6 10,9 9 5 19 11 ZZO 1010,0 60 53 0,0
23.03.2017 17:00:00 13,4 2,6 20,5 10,5 10,9 14 8 20 11 ZO 1009,8 45 47 0,0
23.03.2017 16:00:00 13,5 1,5 20,8 10,4 10,9 4 2 16 9 WZW 1009,6 20 49 0,0
23.03.2017 15:00:00 13,0 4,2 18,1 10,5 11,0 8 4 21 11 ZW 1010,0 52 47 0,0
23.03.2017 14:00:00 10,5 3,5 18,9 10,4 10,9 6 4 18 10 WZW 1010,4 60 42 0,0
23.03.2017 13:00:00 9,8 4,2 12,8 10,4 10,9 7 4 16 9 WZW 1010,5 20 27 0,0
23.03.2017 12:00:00 8,0 4,6 10,1 10,5 10,9 8 4 13 7 ZW 1010,5 60 0 0,0
23.03.2017 11:00:00 6,8 4,6 7,1 10,5 10,9 4 2 9 5 WZW 1010,4 60 0 0,0
23.03.2017 10:00:00 6,0 4,5 5,8 10,5 10,9 3 2 13 7 WZW 1010,0 59 0 0,6
23.03.2017 09:00:00 5,9 4,9 5,4 10,6 10,9 7 4 10 5 ZZO 1009,4 12 0 0,6
23.03.2017 08:00:00 5,7 4,8 5,4 10,6 10,9 6 4 12 7 ZZO 1009,0 8 0 1,2
23.03.2017 07:00:00 5,7 4,7 5,1 10,7 10,9 5 3 7 4 O 1008,4 20 0 0,8
23.03.2017 06:00:00 5,6 4,2 4,9 10,7 10,9 3 1 7 4 ZZO 1008,5 15 0 1,2
23.03.2017 05:00:00 5,5 4,1 4,7 10,7 10,9 0 0 5 3 N 1008,5 56 0 0,0
23.03.2017 04:00:00 5,6 4,4 4,9 10,8 11,0 3 2 8 4 ZO 1009,0 20 0 0,4
23.03.2017 03:00:00 5,7 4,3 5,2 10,8 10,9 0 0 11 6 N 1009,1 8 0 1,2
23.03.2017 02:00:00 5,8 4,4 5,3 10,9 11,0 4 2 8 5 ZW 1009,4 36 0 1,4
23.03.2017 01:00:00 - - - - - - - - - - - - - -

tt = temperatuur
td = dauwpunt
tt 5cm = temperatuur 5cm
tt -20cm = temperatuur -20cm
tt -100cm = temperatuur -100cm
ff = windsnelheid
fx = windstoten
dd = windrichting
ppp = luchtdruk
vv = zicht
sd = Zonneschijnduur
rr = neerslag

Weerstations in de omgeving